Date,TemperatureHighF,TemperatureAvgF,TemperatureLowF,DewpointHighF,DewpointAvgF,DewpointLowF,HumidityHigh,HumidityAvg,HumidityLow,PressureMaxIn,PressureMinIn,WindSpeedMaxMPH,WindSpeedAvgMPH,GustSpeedMaxMPH,PrecipitationSumIn
2013-1-1,36,19,9,20,13,6,91,80,51,0.00,40.00,7,3,11,0.00
2013-1-2,36,17,5,20,10,1,91,76,52,0.00,40.00,10,7,16,0.00
2013-1-3,31,17,6,17,11,3,93,78,55,0.00,40.00,10,5,16,0.00
2013-1-4,34,20,9,20,14,5,94,80,53,0.00,40.00,8,4,10,0.00
2013-1-5,29,22,16,26,20,13,97,88,74,0.00,40.00,5,3,8,0.00
2013-1-6,32,27,26,29,26,25,99,96,90,0.00,40.00,7,3,11,0.10
2013-1-7,40,32,26,36,31,25,99,96,81,0.00,40.00,7,4,11,0.04
2013-1-8,46,36,30,34,32,29,99,85,62,0.00,40.00,9,4,14,0.04
2013-1-9,39,31,22,32,26,16,99,84,71,0.00,40.00,16,7,30,0.02
2013-1-10,31,23,18,22,17,14,94,80,58,0.00,40.00,14,5,22,0.01
2013-1-11,30,21,9,18,12,3,92,68,33,0.00,40.00,15,6,22,0.02
2013-1-12,20,7,-3,7,1,-8,85,76,54,0.00,40.00,6,4,9,0.01
2013-1-13,29,8,-6,7,-2,-12,81,65,38,0.00,40.00,7,4,10,0.00
2013-1-14,27,12,-1,8,2,-6,79,65,41,0.00,40.00,8,4,12,0.00
2013-1-15,35,19,5,14,8,1,82,63,38,0.00,40.00,8,4,10,0.00
2013-1-16,39,22,7,17,12,4,88,67,39,0.00,40.00,7,4,11,0.00
2013-1-17,40,25,12,20,14,9,87,66,42,0.00,40.00,7,5,11,0.00
2013-1-18,44,26,11,20,14,8,87,63,38,0.00,40.00,8,4,13,0.00
2013-1-19,46,27,11,20,13,8,86,59,33,0.00,40.00,9,5,15,0.00
2013-1-20,46,25,11,18,10,5,79,57,31,0.00,40.00,10,6,15,0.00
2013-1-21,44,25,11,19,10,5,77,54,32,0.00,40.00,9,5,13,0.00
2013-1-22,41,27,15,18,13,8,75,56,39,0.00,40.00,6,4,10,0.00
2013-1-23,46,38,30,35,25,14,99,62,38,0.00,40.00,13,6,31,0.23
2013-1-24,45,37,34,38,36,34,100,95,74,0.00,40.00,6,3,11,0.14
2013-1-25,40,36,34,39,36,34,100,99,94,0.00,40.00,8,4,14,0.29
2013-1-26,40,33,25,37,26,19,99,76,52,0.00,40.00,14,7,22,0.06
2013-1-27,37,28,19,24,21,17,94,76,52,0.00,40.00,9,5,16,0.01
2013-1-28,35,31,26,26,23,21,93,74,62,0.00,40.00,12,7,24,0.01
2013-1-29,41,34,31,29,26,23,91,72,58,0.00,40.00,18,7,24,0.00
2013-1-30,47,35,26,30,27,25,97,77,50,0.00,40.00,5,3,10,0.00
2013-1-31,47,33,21,31,26,20,96,78,54,0.00,40.00,5,3,7,0.00